Location: Bednik
(45.3500°N, 16.3833°E)
Time: 14:57:16
(UTC+00:00)

ERS-1 Rocket - Pass Details

Date: 08 August 2020
Orbit: 753 x 757 km, 98.5° (Epoch: 18 September)

Event Time Altitude Azimuth Distance (km) Brightness Sun altitude
Exits shadow 19:56:07 26° 127° (SE) 1,449 3.8 -16.0°
Maximum altitude 19:58:33 47° 69° (ENE) 1,003 3.4 -16.3°
Drops below altitude 10° 20:03:21 10° 357° (N) 2,291 6.2 -16.9°
Sets 20:05:43 0° 352° (N) 3,219 7.1 -17.2°
